Cloud_Cover
100 100 100 100 100 100 34 5 92 100 100 100 100 100 100 100 100 100 97 56 52 98 20 9 68 91 98 6 5 42 95 53 78 93 13 14 14 9 6 5 41 76 5 26 6
85 100 100 100 100 66 70 31 5 46 40 98 100 100 100 100 100 100 72 100 100 74 100 13 8 6 100 100 100 84 96 23 28 6 33 33 5 88 8 5 96 100 93 7 5
90 100 100 100 100 100 100 83 63 40 7 89 100 100 100 100 100 100 100 100 100 100 100 7 35 42 48 77 100 100 74 88 47 87 31 97 68 39 7 5 5 100 40 5 5
100 100 100 100 100 100 100 100 77 100 44 50 99 100 100 100 100 93 95 90 95 46 30 5 6 36 5 5 6 5 69 98 100 100 99 80 20 14 6 92 52 19 31 5 5
100 100 100 100 100 100 100 100 100 100 100 100 78 78 43 82 97 68 33 36 54 72 67 43 10 6 5 50 22 9 62 54 100 100 75 48 8 20 82 11 21 98 78 33 5
100 100 100 100 100 100 100 100 100 99 97 100 36 84 100 99 100 84 16 5 100 32 81 17 5 5 7 30 45 24 15 70 83 69 71 5 38 31 77 35 5 5 5 5 5
100 100 100 100 100 100 100 100 95 98 100 100 100 96 51 64 100 76 20 40 98 38 16 5 86 49 100 100 100 100 40 6 7 7 36 5 6 85 93 92 98 32 5 5 5
100 100 100 100 100 100 100 87 96 81 100 100 91 100 99 24 64 58 37 90 5 9 5 7 9 46 24 18 16 32 13 43 64 13 45 100 12 100 59 78 52 12 21 14 19
100 100 100 100 100 100 100 100 100 100 100 100 62 84 97 30 26 92 85 29 5 5 5 5 5 5 5 5 5 5 14 17 20 12 57 25 15 69 100 100 100 95 96 83 41
100 100 100 100 100 100 100 96 100 100 100 100 100 100 85 98 82 97 28 38 39 5 5 24 12 5 7 14 5 5 19 33 79 97 99 100 100 82 100 100 29 12 67 70 92
100 100 100 100 100 100 100 100 100 100 100 100 100 100 94 13 17 44 6 5 16 5 35 13 5 5 10 15 5 52 96 100 41 8 90 100 100 100 44 100 100 100 100 100 100
100 100 100 100 100 100 100 100 100 100 100 100 89 77 34 74 66 60 16 18 18 37 5 52 48 16 64 5 16 10 24 88 59 7 5 39 55 82 6 56 26 12 6 12 8
100 100 100 100 100 100 100 100 100 100 100 100 98 87 97 55 76 74 88 100 54 71 74 90 65 98 16 5 5 5 5 5 14 5 5 5 72 96 85 94 100 100 100 77 72
100 100 100 100 100 100 100 100 100 100 99 100 100 100 91 39 52 22 85 41 13 22 85 28 100 20 100 94 25 31 12 72 5 5 8 65 97 100 100 100 84 84 80 6 5
100 100 100 100 100 100 100 100 100 100 100 13 100 100 100 14 100 100 96 100 100 16 86 88 96 100 100 100 100 100 100 71 45 5 5 92 49 100 99 97 11 85 97 11 5
100 100 100 100 100 100 100 100 100 100 91 41 87 100 100 96 97 71 100 100 100 83 46 98 77 100 100 100 100 100 100 100 100 89 16 100 100 100 100 85 5 5 2 5 5
100 100 100 100 100 100 100 100 100 100 91 100 66 97 100 100 100 100 100 100 100 100 100 100 78 58 100 100 100 100 100 100 100 100 100 100 100 100 96 8 31 79 67 5 0
100 100 100 100 100 100 100 100 100 86 100 100 100 100 100 100 100 100 100 100 100 100 100 100 100 11 79 100 100 100 100 100 100 100 100 82 66 100 92 48 5 99 10 0 0
100 100 100 100 100 100 100 100 100 100 100 100 100 100 100 100 100 100 100 100 100 100 100 100 100 13 100 97 88 100 100 100 100 100 100 100 100 100 60 70 99 12 4 0 0
100 100 100 100 100 100 100 100 100 100 100 100 100 100 100 100 100 100 100 100 100 100 100 100 100 98 100 100 100 100 100 100 100 100 100 86 93 100 100 98 6 5 1 4 1
100 100 100 100 100 100 100 100 100 100 100 100 100 100 100 100 100 100 100 100 100 100 100 100 100 100 100 99 100 97 100 100 100 100 100 92 55 100 92 23 34 17 5 4 49
100 100 100 100 100 100 100 100 100 100 100 100 100 100 100 100 100 100 100 100 98 100 100 100 100 100 100 100 100 100 100 100 100 100 100 100 48 100 22 44 14 5 4 5 5
100 83 100 100 100 100 100 100 100 100 100 100 100 100 100 100 100 100 100 100 100 100 100 100 100 100 100 100 100 100 100 100 100 100 82 100 42 100 72 5 3 69 74 5 0
100 100 100 100 94 87 100 100 100 100 100 100 100 100 100 100 100 100 100 100 100 100 100 100 100 100 100 100 100 100 100 100 100 100 100 67 46 94 38 24 82 68 42 4 1
100 100 100 100 100 68 75 86 100 100 100 100 100 100 100 100 100 100 100 100 100 100 100 100 100 100 100 100 100 100 100 100 78 100 100 28 44 89 90 41 5 4 0 0 4
100 100 100 100 100 100 98 93 62 39 94 100 100 100 100 100 100 100 100 100 100 100 100 100 100 100 100 100 100 100 66 99 100 87 100 93 12 100 5 2 5 5 5 5 5
100 100 98 75 100 100 100 84 62 100 100 100 100 100 100 100 100 100 100 100 100 100 100 98 100 100 87 100 100 15 89 100 100 100 100 100 95 5 5 5 5 5 4 5 5